Time,TemperatureF,DewpointF,PressureIn,WindDirection,WindDirectionDegrees,WindSpeedMPH,WindSpeedGustMPH,Humidity,HourlyPrecipIn,Conditions,Clouds,dailyrainin,SoftwareType,DateUTC
2013-03-04 00:01:00,24.0,14.0,-100.00,SSE,150,19.0,26.0,63,0.00,,,0.00,,2013-03-04 06:01:00,
2013-03-04 00:11:00,24.0,14.0,-100.00,SSE,155,18.0,24.0,64,0.00,,,0.00,,2013-03-04 06:11:00,
2013-03-04 00:21:00,24.0,14.0,-100.00,SSE,160,22.0,28.0,65,0.00,,,0.00,,2013-03-04 06:21:00,
2013-03-04 00:32:00,24.0,16.0,-100.00,SSE,155,22.0,30.0,69,0.00,,,0.00,,2013-03-04 06:32:00,
2013-03-04 00:42:00,23.0,16.0,-100.00,SSE,150,22.0,28.0,73,0.00,,,0.01,,2013-03-04 06:42:00,
2013-03-04 00:51:00,23.0,16.0,-100.00,SSE,155,21.0,26.0,75,0.00,,,0.01,,2013-03-04 06:51:00,
2013-03-04 01:01:00,23.0,18.0,-100.00,SE,145,20.0,27.0,79,0.00,,,0.01,,2013-03-04 07:01:00,
2013-03-04 01:11:00,23.0,18.0,-100.00,SE,145,19.0,27.0,81,0.00,,,0.01,,2013-03-04 07:11:00,
2013-03-04 01:21:00,22.0,19.0,-100.00,SE,145,19.0,28.0,87,0.00,,,0.01,,2013-03-04 07:21:00,
2013-03-04 01:32:00,22.0,19.0,-100.00,SE,135,21.0,29.0,89,0.00,,,0.01,,2013-03-04 07:32:00,
2013-03-04 01:41:00,22.0,19.0,-100.00,SE,135,21.0,27.0,89,0.00,,,0.01,,2013-03-04 07:41:00,
2013-03-04 01:51:00,22.0,19.0,-100.00,SE,135,19.0,26.0,90,0.00,,,0.01,,2013-03-04 07:51:00,
2013-03-04 02:02:00,22.0,19.0,-100.00,SE,130,21.0,28.0,90,0.00,,,0.01,,2013-03-04 08:02:00,
2013-03-04 02:11:00,22.0,19.0,-100.00,SE,135,21.0,27.0,91,0.00,,,0.01,,2013-03-04 08:11:00,
2013-03-04 02:21:00,22.0,19.0,-100.00,SE,140,21.0,26.0,91,0.00,,,0.01,,2013-03-04 08:21:00,
2013-03-04 02:31:00,22.0,19.0,-100.00,SE,135,24.0,30.0,91,0.00,,,0.01,,2013-03-04 08:31:00,
2013-03-04 02:41:00,22.0,19.0,-100.00,SE,135,23.0,28.0,91,0.00,,,0.01,,2013-03-04 08:41:00,
2013-03-04 02:52:00,22.0,19.0,-100.00,SE,135,22.0,27.0,91,0.00,,,0.01,,2013-03-04 08:52:00,
2013-03-04 03:01:00,22.0,19.0,-100.00,SE,130,18.0,27.0,91,0.00,,,0.01,,2013-03-04 09:01:00,
2013-03-04 03:11:00,22.0,19.0,-100.00,SE,135,18.0,26.0,92,0.00,,,0.01,,2013-03-04 09:11:00,
2013-03-04 03:21:00,22.0,19.0,-100.00,SE,130,19.0,27.0,92,0.00,,,0.01,,2013-03-04 09:21:00,
2013-03-04 03:32:00,22.0,19.0,-100.00,SE,125,23.0,26.0,92,0.00,,,0.01,,2013-03-04 09:32:00,
2013-03-04 03:42:00,22.0,21.0,-100.00,SE,125,17.0,26.0,93,0.00,,,0.01,,2013-03-04 09:42:00,
2013-03-04 03:51:00,22.0,21.0,-100.00,SE,125,20.0,26.0,93,0.00,,,0.01,,2013-03-04 09:51:00,
2013-03-04 04:01:00,22.0,19.0,-100.00,SE,125,21.0,26.0,93,0.00,,,0.01,,2013-03-04 10:01:00,
2013-03-04 04:11:00,22.0,19.0,-100.00,SE,125,20.0,26.0,93,0.00,,,0.01,,2013-03-04 10:11:00,
2013-03-04 04:21:00,22.0,19.0,-100.00,SE,125,19.0,24.0,93,0.00,,,0.01,,2013-03-04 10:21:00,
2013-03-04 04:32:00,22.0,19.0,-100.00,SE,125,17.0,24.0,93,0.00,,,0.01,,2013-03-04 10:32:00,
2013-03-04 04:42:00,21.0,19.0,-100.00,SE,125,20.0,25.0,93,0.00,,,0.01,,2013-03-04 10:42:00,
2013-03-04 04:52:00,21.0,19.0,-100.00,SE,130,21.0,24.0,93,0.00,,,0.01,,2013-03-04 10:52:00,
2013-03-04 05:01:00,21.0,19.0,-100.00,SE,130,19.0,26.0,93,0.00,,,0.01,,2013-03-04 11:01:00,
2013-03-04 05:11:00,21.0,19.0,-100.00,SE,130,17.0,27.0,93,0.00,,,0.01,,2013-03-04 11:11:00,
2013-03-04 05:21:00,21.0,19.0,-100.00,SE,130,18.0,24.0,93,0.00,,,0.01,,2013-03-04 11:21:00,
2013-03-04 05:32:00,21.0,19.0,-100.00,SE,125,20.0,28.0,93,0.00,,,0.01,,2013-03-04 11:32:00,
2013-03-04 05:42:00,21.0,19.0,-100.00,ESE,120,22.0,28.0,93,0.00,,,0.01,,2013-03-04 11:42:00,
2013-03-04 05:52:00,22.0,19.0,-100.00,SE,130,21.0,27.0,93,0.00,,,0.01,,2013-03-04 11:52:00,
2013-03-04 06:01:00,21.0,19.0,-100.00,SE,125,21.0,29.0,93,0.00,,,0.01,,2013-03-04 12:01:00,
2013-03-04 06:11:00,21.0,19.0,-100.00,SE,125,20.0,27.0,93,0.00,,,0.01,,2013-03-04 12:11:00,
2013-03-04 06:22:00,21.0,19.0,-100.00,SE,125,19.0,27.0,93,0.00,,,0.01,,2013-03-04 12:22:00,
2013-03-04 06:32:00,21.0,19.0,-100.00,SE,135,22.0,29.0,93,0.00,,,0.01,,2013-03-04 12:32:00,
2013-03-04 06:42:00,21.0,19.0,-100.00,SE,130,19.0,29.0,93,0.00,,,0.01,,2013-03-04 12:42:00,
2013-03-04 06:52:00,22.0,19.0,-100.00,SE,130,19.0,28.0,93,0.00,,,0.01,,2013-03-04 12:52:00,
2013-03-04 07:02:00,21.0,19.0,-100.00,SE,130,21.0,28.0,93,0.00,,,0.01,,2013-03-04 13:02:00,
2013-03-04 07:11:00,21.0,19.0,-100.00,SE,125,21.0,28.0,93,0.00,,,0.01,,2013-03-04 13:11:00,
2013-03-04 07:21:00,22.0,19.0,-100.00,SE,125,21.0,28.0,93,0.00,,,0.01,,2013-03-04 13:21:00,
2013-03-04 07:32:00,22.0,19.0,-100.00,SE,130,20.0,27.0,93,0.00,,,0.01,,2013-03-04 13:32:00,
2013-03-04 07:41:00,22.0,19.0,-100.00,SE,130,19.0,26.0,93,0.00,,,0.01,,2013-03-04 13:41:00,
2013-03-04 07:51:00,22.0,19.0,-100.00,ESE,120,21.0,26.0,93,0.00,,,0.01,,2013-03-04 13:51:00,
2013-03-04 08:01:00,22.0,19.0,-100.00,SE,130,19.0,24.0,92,0.00,,,0.01,,2013-03-04 14:01:00,
2013-03-04 08:11:00,22.0,19.0,-100.00,SE,125,19.0,27.0,92,0.00,,,0.01,,2013-03-04 14:11:00,
2013-03-04 08:22:00,22.0,19.0,-100.00,SE,125,21.0,26.0,91,0.00,,,0.01,,2013-03-04 14:22:00,
2013-03-04 08:32:00,22.0,19.0,-100.00,SE,130,17.0,27.0,91,0.00,,,0.01,,2013-03-04 14:32:00,
2013-03-04 08:42:00,22.0,19.0,-100.00,SE,130,22.0,27.0,91,0.00,,,0.01,,2013-03-04 14:42:00,
2013-03-04 08:52:00,22.0,19.0,-100.00,SE,135,21.0,29.0,90,0.00,,,0.01,,2013-03-04 14:52:00,
2013-03-04 09:01:00,22.0,19.0,-100.00,SE,125,19.0,26.0,90,0.00,,,0.01,,2013-03-04 15:01:00,
2013-03-04 09:11:00,22.0,19.0,-100.00,SE,130,17.0,25.0,90,0.00,,,0.01,,2013-03-04 15:11:00,
2013-03-04 09:21:00,22.0,19.0,-100.00,SE,135,18.0,24.0,90,0.00,,,0.01,,2013-03-04 15:21:00,
2013-03-04 09:32:00,22.0,19.0,-100.00,SE,130,23.0,28.0,90,0.00,,,0.01,,2013-03-04 15:32:00,
2013-03-04 09:42:00,22.0,19.0,-100.00,SE,140,21.0,26.0,90,0.00,,,0.01,,2013-03-04 15:42:00,
2013-03-04 09:51:00,22.0,19.0,-100.00,SE,140,19.0,26.0,90,0.00,,,0.01,,2013-03-04 15:51:00,
2013-03-04 10:02:00,22.0,19.0,-100.00,SE,140,19.0,24.0,90,0.00,,,0.01,,2013-03-04 16:02:00,
2013-03-04 10:11:00,22.0,19.0,-100.00,SE,140,19.0,26.0,90,0.00,,,0.01,,2013-03-04 16:11:00,
2013-03-04 10:21:00,22.0,19.0,-100.00,SE,135,18.0,28.0,90,0.00,,,0.01,,2013-03-04 16:21:00,
2013-03-04 10:31:00,22.0,19.0,-100.00,SE,135,18.0,26.0,90,0.00,,,0.01,,2013-03-04 16:31:00,
2013-03-04 10:42:00,22.0,19.0,-100.00,SE,145,19.0,26.0,89,0.00,,,0.01,,2013-03-04 16:42:00,
2013-03-04 10:52:00,22.0,19.0,-100.00,SE,135,21.0,26.0,89,0.00,,,0.01,,2013-03-04 16:52:00,
2013-03-04 11:02:00,22.0,19.0,-100.00,SE,140,21.0,27.0,89,0.00,,,0.01,,2013-03-04 17:02:00,
2013-03-04 11:11:00,22.0,19.0,-100.00,SE,145,21.0,26.0,89,0.00,,,0.01,,2013-03-04 17:11:00,
2013-03-04 11:22:00,23.0,19.0,-100.00,SE,140,21.0,26.0,89,0.00,,,0.01,,2013-03-04 17:22:00,
2013-03-04 11:32:00,23.0,19.0,-100.00,SE,145,18.0,26.0,89,0.00,,,0.01,,2013-03-04 17:32:00,
2013-03-04 11:42:00,23.0,19.0,-100.00,SE,135,19.0,24.0,89,0.00,,,0.01,,2013-03-04 17:42:00,
2013-03-04 11:52:00,23.0,21.0,-100.00,SE,145,19.0,25.0,89,0.00,,,0.01,,2013-03-04 17:52:00,
2013-03-04 12:01:00,23.0,21.0,-100.00,SSE,150,20.0,26.0,88,0.00,,,0.01,,2013-03-04 18:01:00,
2013-03-04 12:11:00,23.0,21.0,-100.00,SE,145,22.0,26.0,88,0.00,,,0.01,,2013-03-04 18:11:00,
2013-03-04 12:21:00,23.0,21.0,-100.00,SSE,150,23.0,31.0,89,0.00,,,0.01,,2013-03-04 18:21:00,
2013-03-04 12:32:00,23.0,21.0,-100.00,SSE,150,21.0,26.0,89,0.00,,,0.01,,2013-03-04 18:32:00,
2013-03-04 12:42:00,23.0,21.0,-100.00,SE,145,22.0,27.0,89,0.00,,,0.02,,2013-03-04 18:42:00,
2013-03-04 12:52:00,23.0,21.0,-100.00,SSE,150,20.0,26.0,89,0.00,,,0.02,,2013-03-04 18:52:00,
2013-03-04 13:01:00,23.0,21.0,-100.00,SE,145,22.0,26.0,90,0.00,,,0.02,,2013-03-04 19:01:00,
2013-03-04 13:11:00,23.0,21.0,-100.00,SE,145,19.0,26.0,90,0.00,,,0.02,,2013-03-04 19:11:00,
2013-03-04 13:21:00,23.0,21.0,-100.00,SE,145,17.0,26.0,91,0.00,,,0.02,,2013-03-04 19:21:00,
2013-03-04 13:32:00,23.0,21.0,-100.00,SSE,150,16.0,22.0,91,0.00,,,0.02,,2013-03-04 19:32:00,
2013-03-04 13:42:00,23.0,21.0,-100.00,SSE,150,19.0,24.0,92,0.00,,,0.01,,2013-03-04 19:42:00,
2013-03-04 13:51:00,23.0,21.0,-100.00,SE,145,17.0,22.0,92,0.00,,,0.01,,2013-03-04 19:51:00,
2013-03-04 14:01:00,23.0,21.0,-100.00,SE,140,16.0,21.0,92,0.00,,,0.01,,2013-03-04 20:01:00,
2013-03-04 14:11:00,23.0,21.0,-100.00,SE,140,17.0,22.0,93,0.00,,,0.01,,2013-03-04 20:11:00,
2013-03-04 14:22:00,23.0,21.0,-100.00,SE,140,17.0,22.0,93,0.00,,,0.01,,2013-03-04 20:22:00,
2013-03-04 14:32:00,23.0,21.0,-100.00,SE,135,17.0,21.0,93,0.00,,,0.01,,2013-03-04 20:32:00,
2013-03-04 14:42:00,23.0,21.0,-100.00,SE,135,16.0,20.0,93,0.00,,,0.01,,2013-03-04 20:42:00,
2013-03-04 14:52:00,22.0,21.0,-100.00,SE,135,17.0,24.0,93,0.00,,,0.01,,2013-03-04 20:52:00,
2013-03-04 15:02:00,22.0,21.0,-100.00,SE,135,17.0,22.0,93,0.00,,,0.01,,2013-03-04 21:02:00,
2013-03-04 15:11:00,22.0,21.0,-100.00,SE,130,17.0,23.0,93,0.00,,,0.02,,2013-03-04 21:11:00,
2013-03-04 15:21:00,22.0,21.0,-100.00,SE,140,19.0,24.0,93,0.00,,,0.02,,2013-03-04 21:21:00,
2013-03-04 15:32:00,23.0,21.0,-100.00,SE,140,15.0,21.0,93,0.00,,,0.02,,2013-03-04 21:32:00,
2013-03-04 15:42:00,22.0,21.0,-100.00,SE,140,18.0,24.0,93,0.00,,,0.02,,2013-03-04 21:42:00,
2013-03-04 15:52:00,22.0,21.0,-100.00,SE,140,17.0,21.0,93,0.00,,,0.02,,2013-03-04 21:52:00,
2013-03-04 16:01:00,23.0,21.0,-100.00,SE,140,13.0,18.0,93,0.00,,,0.02,,2013-03-04 22:01:00,
2013-03-04 16:12:00,22.0,21.0,-100.00,SE,135,14.0,19.0,93,0.00,,,0.02,,2013-03-04 22:12:00,
2013-03-04 16:22:00,22.0,21.0,-100.00,SE,135,13.0,22.0,93,0.00,,,0.02,,2013-03-04 22:22:00,
2013-03-04 16:32:00,22.0,21.0,-100.00,SE,130,15.0,20.0,93,0.00,,,0.02,,2013-03-04 22:32:00,
2013-03-04 16:42:00,22.0,19.0,-100.00,SE,130,15.0,21.0,92,0.00,,,0.02,,2013-03-04 22:42:00,
2013-03-04 16:52:00,22.0,19.0,-100.00,SE,125,15.0,20.0,92,0.00,,,0.02,,2013-03-04 22:52:00,
2013-03-04 17:01:00,22.0,19.0,-100.00,ESE,120,13.0,21.0,91,0.00,,,0.02,,2013-03-04 23:01:00,
2013-03-04 17:11:00,22.0,19.0,-100.00,SE,125,17.0,21.0,91,0.00,,,0.02,,2013-03-04 23:11:00,
2013-03-04 17:21:00,22.0,19.0,-100.00,SE,125,16.0,21.0,91,0.00,,,0.02,,2013-03-04 23:21:00,
2013-03-04 17:32:00,22.0,19.0,-100.00,SE,130,17.0,21.0,90,0.00,,,0.02,,2013-03-04 23:32:00,
2013-03-04 17:42:00,22.0,19.0,-100.00,SE,130,14.0,21.0,90,0.00,,,0.02,,2013-03-04 23:42:00,
2013-03-04 17:52:00,22.0,19.0,-100.00,SE,130,17.0,20.0,91,0.00,,,0.02,,2013-03-04 23:52:00,
2013-03-04 18:01:00,22.0,19.0,-100.00,ESE,120,16.0,20.0,91,0.00,,,0.02,,2013-03-05 00:01:00,
2013-03-04 18:11:00,21.0,19.0,-100.00,SE,125,17.0,21.0,91,0.00,,,0.02,,2013-03-05 00:11:00,
2013-03-04 18:21:00,22.0,19.0,-100.00,SE,125,14.0,21.0,90,0.00,,,0.02,,2013-03-05 00:21:00,
2013-03-04 18:32:00,21.0,19.0,-100.00,SE,130,16.0,22.0,90,0.00,,,0.02,,2013-03-05 00:32:00,
2013-03-04 18:42:00,21.0,19.0,-100.00,SE,135,14.0,21.0,90,0.00,,,0.02,,2013-03-05 00:42:00,
2013-03-04 18:51:00,21.0,19.0,-100.00,SE,145,12.0,18.0,90,0.00,,,0.02,,2013-03-05 00:51:00,
2013-03-04 19:01:00,21.0,19.0,-100.00,SE,135,15.0,17.0,90,0.00,,,0.02,,2013-03-05 01:01:00,
2013-03-04 19:12:00,21.0,19.0,-100.00,SE,130,14.0,19.0,90,0.00,,,0.02,,2013-03-05 01:12:00,
2013-03-04 19:21:00,21.0,19.0,-100.00,SE,140,14.0,18.0,91,0.00,,,0.02,,2013-03-05 01:21:00,
2013-03-04 19:32:00,21.0,19.0,-100.00,SE,145,13.0,19.0,91,0.00,,,0.02,,2013-03-05 01:32:00,
2013-03-04 19:41:00,21.0,19.0,-100.00,SE,140,14.0,19.0,91,0.00,,,0.02,,2013-03-05 01:41:00,
2013-03-04 19:51:00,21.0,19.0,-100.00,SE,140,14.0,19.0,91,0.00,,,0.02,,2013-03-05 01:51:00,
2013-03-04 20:01:00,21.0,19.0,-100.00,SE,145,13.0,17.0,91,0.00,,,0.02,,2013-03-05 02:01:00,
2013-03-04 20:11:00,21.0,19.0,-100.00,SE,145,15.0,19.0,91,0.00,,,0.02,,2013-03-05 02:11:00,
2013-03-04 20:21:00,21.0,19.0,-100.00,SE,135,15.0,20.0,91,0.00,,,0.02,,2013-03-05 02:21:00,
2013-03-04 20:32:00,21.0,19.0,-100.00,SE,135,16.0,22.0,91,0.00,,,0.02,,2013-03-05 02:32:00,
2013-03-04 20:42:00,21.0,19.0,-100.00,SE,130,17.0,21.0,91,0.00,,,0.02,,2013-03-05 02:42:00,
2013-03-04 20:52:00,21.0,19.0,-100.00,SE,140,16.0,22.0,91,0.00,,,0.02,,2013-03-05 02:52:00,
2013-03-04 21:02:00,21.0,19.0,-100.00,SE,135,14.0,21.0,90,0.00,,,0.02,,2013-03-05 03:02:00,
2013-03-04 21:12:00,21.0,19.0,-100.00,SE,130,16.0,21.0,90,0.00,,,0.02,,2013-03-05 03:12:00,
2013-03-04 21:22:00,21.0,19.0,-100.00,SE,130,16.0,21.0,90,0.00,,,0.02,,2013-03-05 03:22:00,
2013-03-04 21:32:00,21.0,19.0,-100.00,SE,135,14.0,20.0,90,0.00,,,0.02,,2013-03-05 03:32:00,
2013-03-04 21:42:00,21.0,19.0,-100.00,SE,145,13.0,17.0,90,0.00,,,0.02,,2013-03-05 03:42:00,
2013-03-04 21:52:00,21.0,19.0,-100.00,SE,145,14.0,18.0,90,0.00,,,0.02,,2013-03-05 03:52:00,
2013-03-04 22:01:00,21.0,19.0,-100.00,SE,145,12.0,18.0,90,0.00,,,0.02,,2013-03-05 04:01:00,
2013-03-04 22:11:00,21.0,19.0,-100.00,SE,145,12.0,16.0,90,0.00,,,0.02,,2013-03-05 04:11:00,
2013-03-04 22:22:00,21.0,19.0,-100.00,SE,140,12.0,18.0,90,0.00,,,0.02,,2013-03-05 04:22:00,
2013-03-04 22:32:00,21.0,19.0,-100.00,SE,135,12.0,16.0,91,0.00,,,0.02,,2013-03-05 04:32:00,
2013-03-04 22:42:00,21.0,19.0,-100.00,SE,130,15.0,19.0,91,0.00,,,0.02,,2013-03-05 04:42:00,
2013-03-04 22:51:00,21.0,19.0,-100.00,SE,125,16.0,21.0,91,0.00,,,0.02,,2013-03-05 04:51:00,
2013-03-04 23:01:00,21.0,19.0,-100.00,SE,130,14.0,18.0,91,0.00,,,0.01,,2013-03-05 05:01:00,
2013-03-04 23:11:00,21.0,19.0,-100.00,SE,125,14.0,20.0,91,0.00,,,0.01,,2013-03-05 05:11:00,
2013-03-04 23:22:00,21.0,19.0,-100.00,SE,135,12.0,17.0,91,0.00,,,0.01,,2013-03-05 05:22:00,
2013-03-04 23:32:00,21.0,19.0,-100.00,SE,125,9.0,15.0,91,0.00,,,0.01,,2013-03-05 05:32:00,
2013-03-04 23:42:00,21.0,19.0,-100.00,ESE,120,12.0,17.0,91,0.00,,,0.01,,2013-03-05 05:42:00,
2013-03-04 23:52:00,21.0,19.0,-100.00,ESE,120,13.0,17.0,91,0.00,,,0.01,,2013-03-05 05:52:00,